Time,TemperatureF,DewpointF,PressureIn,WindDirection,WindDirectionDegrees,WindSpeedMPH,WindSpeedGustMPH,Humidity,HourlyPrecipIn,Conditions,Clouds,dailyrainin,SolarRadiationWatts/m^2,SoftwareType,DateUTC
2013-07-06 00:02:00,76.0,61.0,-100.00,South,179,11.0,15.0,60,0.00,,,0.00,0.000000,,2013-07-06 05:02:00,
2013-07-06 00:11:00,77.0,61.0,-100.00,South,189,10.0,18.0,58,0.00,,,0.00,0.000000,,2013-07-06 05:11:00,
2013-07-06 00:34:00,77.0,61.0,-100.00,South,189,10.0,18.0,58,0.00,,,0.00,0.000000,,2013-07-06 05:34:00,
2013-07-06 00:43:00,77.0,61.0,-100.00,South,189,10.0,18.0,58,0.00,,,0.00,0.000000,,2013-07-06 05:43:00,
2013-07-06 00:53:00,77.0,61.0,-100.00,South,189,10.0,18.0,58,0.00,,,0.00,0.000000,,2013-07-06 05:53:00,
2013-07-06 01:02:00,77.0,61.0,-100.00,South,189,10.0,18.0,58,0.00,,,0.00,0.000000,,2013-07-06 06:02:00,
2013-07-06 01:11:00,75.0,62.0,-100.00,South,179,8.0,14.0,63,0.00,,,0.00,0.000000,,2013-07-06 06:11:00,
2013-07-06 01:43:00,75.0,62.0,-100.00,South,179,8.0,14.0,63,0.00,,,0.00,0.000000,,2013-07-06 06:43:00,
2013-07-06 01:53:00,75.0,62.0,-100.00,South,179,8.0,14.0,63,0.00,,,0.00,0.000000,,2013-07-06 06:53:00,
2013-07-06 02:02:00,75.0,62.0,-100.00,South,179,8.0,14.0,63,0.00,,,0.00,0.000000,,2013-07-06 07:02:00,
2013-07-06 02:11:00,74.0,62.0,-100.00,South,169,8.0,13.0,66,0.00,,,0.00,0.000000,,2013-07-06 07:11:00,
2013-07-06 02:44:00,74.0,62.0,-100.00,South,169,8.0,13.0,66,0.00,,,0.00,0.000000,,2013-07-06 07:44:00,
2013-07-06 02:52:00,74.0,62.0,-100.00,South,169,8.0,13.0,66,0.00,,,0.00,0.000000,,2013-07-06 07:52:00,
2013-07-06 03:02:00,74.0,62.0,-100.00,South,169,8.0,13.0,66,0.00,,,0.00,0.000000,,2013-07-06 08:02:00,
2013-07-06 03:11:00,73.0,61.0,-100.00,South,171,9.0,13.0,67,0.00,,,0.00,0.000000,,2013-07-06 08:11:00,
2013-07-06 03:43:00,73.0,61.0,-100.00,South,171,9.0,13.0,67,0.00,,,0.00,0.000000,,2013-07-06 08:43:00,
2013-07-06 03:54:00,73.0,61.0,-100.00,South,171,9.0,13.0,67,0.00,,,0.00,0.000000,,2013-07-06 08:54:00,
2013-07-06 04:02:00,73.0,61.0,-100.00,South,171,9.0,13.0,67,0.00,,,0.00,0.000000,,2013-07-06 09:02:00,
2013-07-06 04:11:00,72.0,61.0,-100.00,South,169,9.0,14.0,68,0.00,,,0.00,0.000000,,2013-07-06 09:11:00,
2013-07-06 04:43:00,72.0,61.0,-100.00,South,169,9.0,14.0,68,0.00,,,0.00,0.000000,,2013-07-06 09:43:00,
2013-07-06 04:53:00,72.0,61.0,-100.00,South,169,9.0,14.0,68,0.00,,,0.00,0.000000,,2013-07-06 09:53:00,
2013-07-06 05:02:00,72.0,61.0,-100.00,South,169,9.0,14.0,68,0.00,,,0.00,0.000000,,2013-07-06 10:02:00,
2013-07-06 05:11:00,72.0,60.0,-100.00,South,173,10.0,16.0,66,0.00,,,0.00,0.000000,,2013-07-06 10:11:00,
2013-07-06 05:43:00,72.0,60.0,-100.00,South,173,10.0,16.0,66,0.00,,,0.00,0.000000,,2013-07-06 10:43:00,
2013-07-06 05:53:00,72.0,60.0,-100.00,South,173,10.0,16.0,66,0.00,,,0.00,0.000000,,2013-07-06 10:53:00,
2013-07-06 06:01:00,72.0,60.0,-100.00,South,173,10.0,16.0,66,0.00,,,0.00,0.000000,,2013-07-06 11:01:00,
2013-07-06 06:11:00,71.0,60.0,-100.00,South,179,9.0,16.0,68,0.00,,,0.00,6.000000,,2013-07-06 11:11:00,
2013-07-06 06:43:00,71.0,60.0,-100.00,South,179,9.0,16.0,68,0.00,,,0.00,6.000000,,2013-07-06 11:43:00,
2013-07-06 06:53:00,71.0,60.0,-100.00,South,179,9.0,16.0,68,0.00,,,0.00,6.000000,,2013-07-06 11:53:00,
2013-07-06 07:01:00,71.0,60.0,-100.00,South,179,9.0,16.0,68,0.00,,,0.00,6.000000,,2013-07-06 12:01:00,
2013-07-06 07:11:00,71.0,61.0,-100.00,South,186,6.0,12.0,70,0.00,,,0.00,79.000000,,2013-07-06 12:11:00,
2013-07-06 07:43:00,71.0,61.0,-100.00,South,186,6.0,12.0,70,0.00,,,0.00,79.000000,,2013-07-06 12:43:00,
2013-07-06 07:52:00,71.0,61.0,-100.00,South,186,6.0,12.0,70,0.00,,,0.00,79.000000,,2013-07-06 12:52:00,
2013-07-06 08:01:00,71.0,61.0,-100.00,South,186,6.0,12.0,70,0.00,,,0.00,79.000000,,2013-07-06 13:01:00,
2013-07-06 08:11:00,71.0,62.0,-100.00,South,182,7.0,11.0,74,0.00,,,0.00,112.000000,,2013-07-06 13:11:00,
2013-07-06 08:43:00,71.0,62.0,-100.00,South,182,7.0,11.0,74,0.00,,,0.00,112.000000,,2013-07-06 13:43:00,
2013-07-06 08:52:00,71.0,62.0,-100.00,South,182,7.0,11.0,74,0.00,,,0.00,112.000000,,2013-07-06 13:52:00,
2013-07-06 09:02:00,71.0,62.0,-100.00,South,182,7.0,11.0,74,0.00,,,0.00,112.000000,,2013-07-06 14:02:00,
2013-07-06 09:11:00,70.0,64.0,-100.00,SSE,164,7.0,12.0,80,0.00,,,0.00,117.000000,,2013-07-06 14:11:00,
2013-07-06 09:34:00,70.0,64.0,-100.00,SSE,164,7.0,12.0,80,0.00,,,0.00,117.000000,,2013-07-06 14:34:00,
2013-07-06 09:42:00,70.0,64.0,-100.00,SSE,164,7.0,12.0,80,0.00,,,0.00,117.000000,,2013-07-06 14:42:00,
2013-07-06 09:53:00,70.0,64.0,-100.00,SSE,164,7.0,12.0,80,0.00,,,0.00,117.000000,,2013-07-06 14:53:00,
2013-07-06 10:02:00,70.0,64.0,-100.00,SSE,164,7.0,12.0,80,0.00,,,0.00,117.000000,,2013-07-06 15:02:00,
2013-07-06 10:11:00,74.0,64.0,-100.00,SSE,151,10.0,14.0,71,0.00,,,0.00,169.000000,,2013-07-06 15:11:00,
2013-07-06 10:43:00,74.0,64.0,-100.00,SSE,151,10.0,14.0,71,0.00,,,0.00,169.000000,,2013-07-06 15:43:00,
2013-07-06 10:53:00,74.0,64.0,-100.00,SSE,151,10.0,14.0,71,0.00,,,0.00,169.000000,,2013-07-06 15:53:00,
2013-07-06 11:07:00,74.0,64.0,-100.00,SSE,151,10.0,14.0,71,0.00,,,0.00,169.000000,,2013-07-06 16:07:00,
2013-07-06 12:00:00,78.0,65.0,-100.00,SE,144,10.0,14.0,65,0.00,,,0.00,444.000000,,2013-07-06 17:00:00,
2013-07-06 12:10:00,78.0,65.0,-100.00,SE,144,10.0,14.0,65,0.00,,,0.00,444.000000,,2013-07-06 17:10:00,
2013-07-06 12:11:00,79.0,64.0,-100.00,SSE,152,12.0,19.0,60,0.00,,,0.00,463.000000,,2013-07-06 17:11:00,
2013-07-06 13:07:00,79.0,64.0,-100.00,SSE,152,12.0,19.0,60,0.00,,,0.00,463.000000,,2013-07-06 18:07:00,
2013-07-06 14:01:00,81.0,65.0,-100.00,SE,141,10.0,18.0,59,0.00,,,0.00,547.000000,,2013-07-06 19:01:00,
2013-07-06 14:08:00,81.0,65.0,-100.00,SE,141,10.0,18.0,59,0.00,,,0.00,547.000000,,2013-07-06 19:08:00,
2013-07-06 14:11:00,81.0,66.0,-100.00,SSE,149,10.0,17.0,61,0.00,,,0.00,408.000000,,2013-07-06 19:11:00,
2013-07-06 14:59:00,81.0,66.0,-100.00,SSE,149,10.0,17.0,61,0.00,,,0.00,408.000000,,2013-07-06 19:59:00,
2013-07-06 15:11:00,81.0,67.0,-100.00,SSE,167,7.0,15.0,63,0.00,,,0.00,274.000000,,2013-07-06 20:11:00,
2013-07-06 16:11:00,82.0,71.0,-100.00,ESE,123,3.0,9.0,70,0.00,,,0.00,191.000000,,2013-07-06 21:11:00,
2013-07-06 17:11:00,83.0,74.0,-100.00,ESE,103,3.0,4.0,74,0.00,,,0.00,161.000000,,2013-07-06 22:11:00,
2013-07-06 18:09:00,83.0,74.0,-100.00,ESE,103,3.0,4.0,74,0.00,,,0.00,161.000000,,2013-07-06 23:09:00,
2013-07-06 18:11:00,84.0,74.0,-100.00,ESE,116,4.0,6.0,71,0.00,,,0.00,239.000000,,2013-07-06 23:11:00,
2013-07-06 19:10:00,84.0,74.0,-100.00,ESE,116,4.0,6.0,71,0.00,,,0.00,239.000000,,2013-07-07 00:10:00,
2013-07-06 20:11:00,80.0,73.0,-100.00,East,96,2.0,4.0,80,-99.99,,,0.00,57.000000,,2013-07-07 01:11:00,
2013-07-06 20:49:00,80.0,73.0,-100.00,East,96,2.0,4.0,80,-99.99,,,0.00,57.000000,,2013-07-07 01:49:00,
2013-07-06 21:08:00,80.0,73.0,-100.00,East,96,2.0,4.0,80,-99.99,,,0.00,57.000000,,2013-07-07 02:08:00,
2013-07-06 21:11:00,78.0,71.0,-100.00,SSE,153,5.0,6.0,80,0.00,,,0.00,15.000000,,2013-07-07 02:11:00,
2013-07-06 21:54:00,78.0,71.0,-100.00,SSE,153,5.0,6.0,80,0.00,,,0.00,15.000000,,2013-07-07 02:54:00,
2013-07-06 22:02:00,78.0,71.0,-100.00,SSE,153,5.0,6.0,80,0.00,,,0.00,15.000000,,2013-07-07 03:02:00,
2013-07-06 22:11:00,78.0,70.0,-100.00,SSE,167,7.0,9.0,76,0.00,,,0.00,0.000000,,2013-07-07 03:11:00,
2013-07-06 23:01:00,78.0,70.0,-100.00,SSE,167,7.0,9.0,76,0.00,,,0.00,0.000000,,2013-07-07 04:01:00,
2013-07-06 23:02:00,78.0,70.0,-100.00,SSE,167,7.0,9.0,76,0.00,,,0.00,0.000000,,2013-07-07 04:02:00,
2013-07-06 23:11:00,78.0,68.0,-100.00,SSE,168,8.0,11.0,72,0.00,,,0.00,0.000000,,2013-07-07 04:11:00,
2013-07-06 23:31:00,78.0,68.0,-100.00,SSE,168,8.0,11.0,72,0.00,,,0.00,0.000000,,2013-07-07 04:31:00,
2013-07-06 23:41:00,78.0,68.0,-100.00,SSE,168,8.0,11.0,72,0.00,,,0.00,0.000000,,2013-07-07 04:41:00,
2013-07-06 23:51:00,78.0,68.0,-100.00,SSE,168,8.0,11.0,72,0.00,,,0.00,0.000000,,2013-07-07 04:51:00,